Date String (YYYY-MM-DD hh:mm:ss) UTC,Instrument flags,Ambient pressure (hPa),Sample flow (lpm),Bypass flow (lpm),Sample temperature (°C),Ambient temperature (°C),ASC tube jacket temperature (°C),LED temperature (°C),Box temperature (°C),Sample RH (%),Span deviation,Mass concentration (μg/m³),Mass concentration (μg/m³),Mass concentration (μg/m³)
DateTimeUTC,F1_M11,P_M11,Q1_M11,Q2_M11,T1_M11,T2_M11,T3_M11,T4_M11,T5_M11,U1_M11,ZSPAN_M11,X0_M11,X2_M11,X1_M11
2022-05-17 02:00:00,,0821.8,5.00,0.00,29.4,27.6,00.0,38.3,31.2,14.4,0000.0,0013.81,0004.98,0003.76
2022-05-17 02:01:00,,0822.1,5.01,0.00,29.3,25.6,00.0,38.2,30.8,14.5,0000.0,0013.46,0004.99,0003.77
2022-05-17 02:02:00,,0821.9,4.99,0.00,29.2,25.5,00.0,38.2,30.7,14.6,0000.0,0013.92,0005.11,0003.81
2022-05-17 02:03:00,,0822.1,5.01,0.00,29.1,25.8,00.0,38.2,30.7,14.7,0000.0,0014.55,0005.20,0003.83
2022-05-17 02:04:00,,0821.9,4.99,0.00,29.1,26.2,00.0,38.2,30.7,14.5,0000.0,0015.48,0005.30,0003.84
2022-05-17 02:05:00,,0822.0,5.01,0.00,29.1,26.6,00.0,38.2,30.8,14.5,0000.0,0015.85,0005.42,0003.87
2022-05-17 02:06:00,,0821.8,5.01,0.00,29.1,26.9,00.0,38.2,30.8,14.4,0000.0,0016.64,0005.51,0003.88
2022-05-17 02:07:00,,0821.9,5.00,0.00,29.1,27.2,00.0,38.1,30.9,14.6,0000.0,0018.03,0005.66,0003.91
2022-05-17 02:08:00,,0822.0,4.99,0.00,29.1,27.5,00.0,38.1,30.9,14.7,0000.0,0019.36,0005.69,0003.91
2022-05-17 02:09:00,,0822.0,5.00,0.00,29.2,27.7,00.0,38.2,31.0,14.6,0000.0,0019.11,0005.67,0003.91
2022-05-17 02:10:00,,0822.0,5.01,0.00,29.2,27.8,00.0,38.2,31.0,14.4,0000.0,0018.35,0005.63,0003.90
2022-05-17 02:11:00,,0822.0,5.01,0.00,29.2,28.0,00.0,38.2,31.0,14.4,0000.0,0018.76,0005.69,0003.89
2022-05-17 02:12:00,,0822.0,5.00,0.00,29.3,28.1,00.0,38.2,31.1,14.4,0000.0,0019.55,0005.71,0003.88
2022-05-17 02:13:00,,0822.0,5.00,0.00,29.3,28.2,00.0,38.2,31.1,14.3,0000.0,0020.01,0005.66,0003.87
2022-05-17 02:14:00,,0822.0,5.01,0.00,29.3,28.3,00.0,38.2,31.2,14.1,0000.0,0020.02,0005.63,0003.87
2022-05-17 02:15:00,,0822.0,5.00,0.00,29.4,28.4,00.0,38.2,31.3,14.2,0000.0,0019.93,0005.61,0003.86
2022-05-17 02:16:00,,0822.0,4.98,0.00,29.4,27.6,00.0,38.3,31.1,14.1,0000.0,0019.21,0005.56,0003.85
2022-05-17 02:17:00,,0821.9,5.00,0.00,29.3,25.4,00.0,38.2,30.7,14.1,0000.0,0020.03,0005.56,0003.84
2022-05-17 02:18:00,,0821.9,5.00,0.00,29.2,25.3,00.0,38.2,30.7,14.1,0000.0,0019.38,0005.51,0003.82
2022-05-17 02:19:00,,0821.9,5.01,0.00,29.1,25.7,00.0,38.2,30.6,14.1,0000.0,0019.24,0005.50,0003.81
2022-05-17 02:20:00,,0821.8,4.98,0.00,29.1,26.1,00.0,38.1,30.6,14.2,0000.0,0019.66,0005.56,0003.81
2022-05-17 02:21:00,,0821.8,5.00,0.00,29.0,26.5,00.0,38.1,30.7,14.2,0000.0,0019.91,0005.54,0003.81
2022-05-17 02:22:00,,0821.9,5.00,0.00,29.1,26.8,00.0,38.1,30.8,14.2,0000.0,0019.25,0005.49,0003.83
2022-05-17 02:23:00,,0822.0,5.01,0.00,29.1,27.1,00.0,38.1,30.9,14.2,0000.0,0018.59,0005.50,0003.83
2022-05-17 02:24:00,,0821.9,5.00,0.00,29.1,27.4,00.0,38.1,30.9,14.1,0000.0,0018.32,0005.47,0003.83
2022-05-17 02:25:00,,0821.7,5.00,0.00,29.1,27.6,00.0,38.1,31.0,14.1,0000.0,0018.22,0005.42,0003.82
2022-05-17 02:26:00,,0821.9,5.01,0.00,29.2,27.7,00.0,38.1,31.0,14.1,0000.0,0017.33,0005.41,0003.83
2022-05-17 02:27:00,,0821.8,5.00,0.00,29.2,27.9,00.0,38.2,31.1,14.1,0000.0,0016.85,0005.46,0003.83
2022-05-17 02:28:00,,0821.8,4.99,0.00,29.2,28.0,00.0,38.2,31.1,13.9,0000.0,0015.41,0005.44,0003.85
2022-05-17 02:29:00,,0822.0,4.99,0.00,29.2,28.1,00.0,38.2,31.1,14.0,0000.0,0015.24,0005.42,0003.87
2022-05-17 02:30:00,,0821.7,5.00,0.00,29.3,28.2,00.0,38.2,31.1,13.9,0000.0,0013.85,0005.40,0003.88
2022-05-17 02:31:00,,0822.0,5.01,0.00,29.3,28.3,00.0,38.2,31.2,13.9,0000.0,0013.66,0005.41,0003.88
2022-05-17 02:32:00,,0821.9,5.00,0.00,29.3,28.4,00.0,38.2,31.2,14.0,0000.0,0013.25,0005.43,0003.88
2022-05-17 02:33:00,,0821.9,5.01,0.00,29.4,28.3,00.0,38.2,31.2,14.0,0000.0,0013.62,0005.44,0003.87
2022-05-17 02:34:00,,0821.8,5.00,0.00,29.3,26.5,00.0,38.2,31.0,14.0,0000.0,0014.03,0005.39,0003.87
2022-05-17 02:35:00,,0821.7,5.00,0.00,29.2,25.2,00.0,38.2,30.7,14.1,0000.0,0014.04,0005.40,0003.88
2022-05-17 02:36:00,,0821.8,5.00,0.00,29.1,25.4,00.0,38.2,30.6,14.3,0000.0,0013.58,0005.43,0003.87
2022-05-17 02:37:00,,0821.8,4.99,0.00,29.0,25.8,00.0,38.1,30.6,14.4,0000.0,0013.62,0005.40,0003.87
2022-05-17 02:38:00,,0821.8,5.01,0.00,29.0,26.2,00.0,38.1,30.6,14.4,0000.0,0013.57,0005.34,0003.87
2022-05-17 02:39:00,,0821.8,5.00,0.00,29.0,26.6,00.0,38.1,30.7,14.4,0000.0,0013.89,0005.38,0003.87
2022-05-17 02:40:00,,0821.8,4.98,0.00,29.0,26.9,00.0,38.1,30.8,14.5,0000.0,0013.93,0005.35,0003.85
2022-05-17 02:41:00,,0821.8,5.00,0.00,29.1,27.2,00.0,38.1,30.8,14.5,0000.0,0014.22,0005.38,0003.84
2022-05-17 02:42:00,,0821.8,5.00,0.00,29.1,27.4,00.0,38.1,30.9,14.5,0000.0,0015.31,0005.36,0003.84
2022-05-17 02:43:00,,0821.8,5.00,0.00,29.1,27.6,00.0,38.1,30.9,14.5,0000.0,0016.13,0005.34,0003.85
2022-05-17 02:44:00,,0821.7,5.01,0.00,29.1,27.8,00.0,38.1,30.9,14.6,0000.0,0016.19,0005.32,0003.84
2022-05-17 02:45:00,,0821.7,5.00,0.00,29.2,27.9,00.0,38.1,31.0,14.6,0000.0,0015.79,0005.33,0003.83
2022-05-17 02:46:00,,0821.7,4.98,0.00,29.2,28.0,00.0,38.1,31.0,14.6,0000.0,0015.74,0005.41,0003.84
2022-05-17 02:47:00,,0821.6,4.99,0.00,29.2,28.1,00.0,38.2,31.1,14.5,0000.0,0015.82,0005.38,0003.85
2022-05-17 02:48:00,,0821.6,5.00,0.00,29.3,28.2,00.0,38.2,31.1,14.5,0000.0,0016.39,0005.42,0003.85
2022-05-17 02:49:00,,0821.6,5.00,0.00,29.3,28.3,00.0,38.2,31.1,14.5,0000.0,0017.08,0005.42,0003.86
2022-05-17 02:50:00,,0821.7,5.00,0.00,29.3,28.3,00.0,38.2,31.2,14.4,0000.0,0016.74,0005.35,0003.84
2022-05-17 02:51:00,,0821.6,5.01,0.00,29.4,28.4,00.0,38.2,31.2,14.4,0000.0,0016.22,0005.30,0003.83
2022-05-17 02:52:00,,0821.6,4.99,0.00,29.3,26.8,00.0,38.2,31.0,14.3,0000.0,0015.82,0005.26,0003.83
2022-05-17 02:53:00,,0821.7,5.01,0.00,29.2,25.1,00.0,38.2,30.7,14.4,0000.0,0015.49,0005.24,0003.82
2022-05-17 02:54:00,,0821.6,5.00,0.00,29.1,25.3,00.0,38.2,30.6,14.4,0000.0,0014.57,0005.19,0003.80
2022-05-17 02:55:00,,0821.7,4.99,0.00,29.0,25.7,00.0,38.1,30.5,14.5,0000.0,0013.66,0005.16,0003.77
2022-05-17 02:56:00,,0821.6,5.01,0.00,29.0,26.1,00.0,38.1,30.6,14.6,0000.0,0013.52,0005.13,0003.75
2022-05-17 02:57:00,,0821.7,4.99,0.00,29.0,26.5,00.0,38.1,30.7,14.7,0000.0,0012.96,0005.04,0003.72
2022-05-17 02:58:00,,0821.7,4.99,0.00,29.0,26.8,00.0,38.1,30.7,14.7,0000.0,0012.60,0004.96,0003.69
2022-05-17 02:59:00,,0821.7,4.99,0.00,29.0,27.1,00.0,38.1,30.8,14.7,0000.0,0011.92,0004.90,0003.67
